Weather in Uspenka

Russia / Tyumen Oblast     57°04′32″N   65°04′37″E
temp.,
°C
wind,
m/s
gust,
m/s
humid.,
%
clouds,
%
prec.,
mm/h
press.,
hPa
HPBL,
m
18 april, sun
sun1823:00+4wnw28615 0.0 1018158
02:00+3w3107371 0.0 1015223
05:00+3w4137257 0.0 1014417
08:00+5wnw61268100 0.0 10121013
11:00+4n8115598 0.1 10161452
14:00+2nne8113999 0.0 10221987
17:00+1nne79285 0.0 10262139
20:00−2nne59380 0.0 10291197
19 april, mon
mon1923:00−3nne49450 0.0 10311368
02:00−4nne38470 0.0 10321185
05:00−5nne26510 0.0 1034835
08:00−4n46415 0.0 10351323
11:00−1nne463079 0.0 10351926
14:00+2n4628100 0.0 10342328
17:00+2nne4627100 0.0 10332371
20:00−2nne23450 0.0 103443
20 april, tue
tue2023:00−4ne22520 0.0 103415
02:00−4s11550 0.0 103410
05:00−4w22535 0.0 103440
08:000w353435 0.0 1033394
11:00+4w463270 0.0 10311327
14:00+8w57305 0.0 10281757
17:00+8wnw58355 0.0 10271709
20:00+4wnw225711 0.0 102736
21 april, wed
wed2123:00+2wnw310665 0.0 1027187
02:00+1wnw310755 0.0 1027188
05:000nw26855 0.0 1029106
08:00+4n35715 0.0 1030345
11:00+8n355866 0.0 10311313
14:00+10nne3449100 0.0 10311633
17:00+9ne344897 0.0 10321434
20:00+7ene226031 0.0 103437
22 april, thu
thu2223:00+4e22656 0.0 103512
02:00+2sse23715 0.0 103542
05:00+1sse22725 0.0 103723
08:00+6sse23585 0.0 1037227
11:00+11sse33455 0.0 10371145
14:00+14s344037 0.0 10361877
17:00+14s453927 0.0 10361900
20:00+10se385923 0.0 1036137